UPS1 VVTS-WMKP

Flight info

Callsign UPS1
Flight time 1h 12m
Altitude 30000
Route BACHU W17 TUNPO W8 PQU R334 NUMDI/N0516F300 R334 KOS R588 RELIP/N0520F290 A464 HTY/N0517F280 A457 VAS
Aircraft B742/H-SDFHIRWXY/L

Departure

Time 2026-04-22 23:19
Airport Tan Son Nhat International Airport (VVTS)

Arrival

Time 2026-04-23 00:31
Airport Penang International Airport (WMKP)
Time Latitude Longitude Altitude Speed Heading
2026-04-22 22:49 10.82059 106.66768 33 ft 0 kts
2026-04-22 23:15 10.82067 106.66769 33 ft 3 kts
2026-04-22 23:15 10.82113 106.66789 33 ft 11 kts 42°
2026-04-22 23:15 10.82151 106.66842 34 ft 9 kts 57°
2026-04-22 23:16 10.82173 106.66876 34 ft 2 kts 57°
2026-04-22 23:16 10.82187 106.66898 35 ft 6 kts 57°
2026-04-22 23:16 10.82192 106.66905 35 ft 1 kts 57°
2026-04-22 23:16 10.82207 106.66928 35 ft 6 kts 57°
2026-04-22 23:17 10.82228 106.66963 36 ft 4 kts 63°
2026-04-22 23:17 10.82252 106.66995 37 ft 8 kts 29°
2026-04-22 23:17 10.82323 106.66981 36 ft 15 kts 303°
2026-04-22 23:17 10.82344 106.66887 35 ft 10 kts 251°
2026-04-22 23:18 10.82343 106.66883 35 ft 0 kts 251°
2026-04-22 23:18 10.82341 106.66878 34 ft 6 kts 251°
2026-04-22 23:18 10.82236 106.66598 34 ft 81 kts 248°
2026-04-22 23:18 10.81944 106.65819 33 ft 149 kts 249°
2026-04-22 23:19 10.81528 106.64687 245 ft 185 kts 248°
2026-04-22 23:19 10.81047 106.63456 859 ft 196 kts 245°
2026-04-22 23:19 10.80496 106.62117 1421 ft 217 kts 247°
2026-04-22 23:19 10.80009 106.60541 1835 ft 247 kts 252°
2026-04-22 23:20 10.79495 106.58777 2372 ft 273 kts 251°
2026-04-22 23:20 10.78913 106.56918 3249 ft 283 kts 249°
2026-04-22 23:20 10.78239 106.55007 4134 ft 294 kts 249°
2026-04-22 23:20 10.77539 106.53045 5057 ft 302 kts 250°
2026-04-22 23:21 10.76820 106.51032 5999 ft 307 kts 251°
2026-04-22 23:21 10.76095 106.48998 6939 ft 310 kts 251°
2026-04-22 23:21 10.75361 106.46943 7872 ft 312 kts 250°
2026-04-22 23:21 10.74625 106.44883 8799 ft 312 kts 250°
2026-04-22 23:22 10.73881 106.42801 9700 ft 311 kts 249°
2026-04-22 23:22 10.73149 106.40758 10414 ft 316 kts 249°
2026-04-22 23:22 10.72376 106.38601 10925 ft 328 kts 249°
2026-04-22 23:22 10.71587 106.36397 11284 ft 340 kts 250°
2026-04-22 23:23 10.70763 106.34098 11558 ft 354 kts 249°
2026-04-22 23:23 10.69898 106.31696 11832 ft 369 kts 249°
2026-04-22 23:23 10.68998 106.29192 12112 ft 383 kts 250°
2026-04-22 23:23 10.68065 106.26589 12385 ft 397 kts 250°
2026-04-22 23:24 10.67104 106.23910 12661 ft 411 kts 250°
2026-04-22 23:24 10.66117 106.21156 13166 ft 417 kts 250°
2026-04-22 23:24 10.65132 106.18409 13845 ft 418 kts 250°
2026-04-22 23:24 10.64135 106.15629 14450 ft 421 kts 250°
2026-04-22 23:25 10.63122 106.12805 15054 ft 424 kts 250°
2026-04-22 23:25 10.62114 106.09995 15611 ft 428 kts 250°
2026-04-22 23:25 10.61080 106.07113 16187 ft 432 kts 250°
2026-04-22 23:25 10.60059 106.04266 16753 ft 436 kts 250°
2026-04-22 23:26 10.59011 106.01363 17303 ft 440 kts 250°
2026-04-22 23:26 10.57866 105.98434 17864 ft 444 kts 248°
2026-04-22 23:26 10.56706 105.95521 18450 ft 447 kts 248°
2026-04-22 23:26 10.55557 105.92572 18980 ft 451 kts 249°
2026-04-22 23:27 10.54431 105.89610 19554 ft 454 kts 249°
2026-04-22 23:27 10.53313 105.86620 20081 ft 457 kts 249°
2026-04-22 23:27 10.52181 105.83564 20622 ft 460 kts 249°
2026-04-22 23:27 10.51053 105.80508 21134 ft 464 kts 249°
2026-04-22 23:28 10.49929 105.77456 21625 ft 467 kts 249°
2026-04-22 23:28 10.48788 105.74356 22095 ft 471 kts 249°
2026-04-22 23:28 10.47639 105.71236 22558 ft 474 kts 249°
2026-04-22 23:28 10.46469 105.68062 23009 ft 478 kts 249°
2026-04-22 23:29 10.45312 105.64924 23422 ft 481 kts 249°
2026-04-22 23:29 10.44134 105.61731 23830 ft 485 kts 249°
2026-04-22 23:29 10.42936 105.58487 24249 ft 488 kts 249°
2026-04-22 23:29 10.41738 105.55241 24608 ft 492 kts 249°
2026-04-22 23:30 10.40543 105.52005 24983 ft 495 kts 249°
2026-04-22 23:30 10.39346 105.48766 25818 ft 486 kts 249°
2026-04-22 23:30 10.38180 105.45615 26786 ft 474 kts 249°
2026-04-22 23:30 10.37027 105.42500 27765 ft 462 kts 250°
2026-04-22 23:31 10.35903 105.39462 28174 ft 463 kts 250°
2026-04-22 23:31 10.34764 105.36386 28311 ft 471 kts 250°
2026-04-22 23:31 10.33608 105.33264 28597 ft 474 kts 249°
2026-04-22 23:31 10.32444 105.30122 28925 ft 477 kts 250°
2026-04-22 23:32 10.31262 105.26932 29238 ft 479 kts 250°
2026-04-22 23:32 10.30090 105.23772 29532 ft 482 kts 250°
2026-04-22 23:32 10.28910 105.20589 29779 ft 486 kts 250°
2026-04-22 23:32 10.27713 105.17360 29847 ft 493 kts 250°
2026-04-22 23:33 10.25257 105.10739 29859 ft 503 kts 250°
2026-04-22 23:33 10.22819 105.04177 29855 ft 491 kts 250°
2026-04-22 23:34 10.20398 104.97662 29858 ft 496 kts 250°
2026-04-22 23:34 10.17962 104.91109 29853 ft 496 kts 250°
2026-04-22 23:35 10.15529 104.84573 29846 ft 493 kts 250°
2026-04-22 23:35 10.13099 104.78045 29847 ft 498 kts 250°
2026-04-22 23:36 10.10654 104.71484 29842 ft 496 kts 250°
2026-04-22 23:36 10.08218 104.64950 29842 ft 496 kts 250°
2026-04-22 23:37 10.05365 104.58554 29843 ft 497 kts 238°
2026-04-22 23:37 10.01405 104.52847 29843 ft 496 kts 233°
2026-04-22 23:38 9.97175 104.47248 29841 ft 496 kts 233°
2026-04-22 23:38 9.93013 104.41679 29844 ft 503 kts 233°
2026-04-22 23:39 9.88755 104.35912 29846 ft 518 kts 233°
2026-04-22 23:39 9.84381 104.29969 29839 ft 531 kts 233°
2026-04-22 23:40 9.79899 104.23878 29833 ft 542 kts 233°
2026-04-22 23:40 9.75360 104.17717 29835 ft 546 kts 233°
2026-04-22 23:41 9.70823 104.11560 29846 ft 542 kts 233°
2026-04-22 23:41 9.66314 104.05445 29847 ft 543 kts 233°
2026-04-22 23:42 9.61772 103.99289 29843 ft 544 kts 233°
2026-04-22 23:42 9.57253 103.93168 29842 ft 543 kts 233°
2026-04-22 23:43 9.52727 103.87039 29841 ft 544 kts 233°
2026-04-22 23:43 9.48175 103.80878 29841 ft 545 kts 233°
2026-04-22 23:44 9.43619 103.74716 29840 ft 544 kts 233°
2026-04-22 23:44 9.39071 103.68565 29843 ft 546 kts 233°
2026-04-22 23:45 9.34529 103.62427 29843 ft 545 kts 233°
2026-04-22 23:45 9.29967 103.56267 29843 ft 545 kts 233°
2026-04-22 23:46 9.25442 103.50158 29840 ft 544 kts 233°
2026-04-22 23:46 9.20894 103.44021 29842 ft 546 kts 233°
2026-04-22 23:47 9.16327 103.37862 29839 ft 546 kts 233°
2026-04-22 23:47 9.11743 103.31683 29842 ft 547 kts 233°
2026-04-22 23:48 9.07193 103.25552 29840 ft 547 kts 233°
2026-04-22 23:48 9.02618 103.19389 29842 ft 547 kts 233°
2026-04-22 23:49 8.98035 103.13222 29841 ft 545 kts 233°
2026-04-22 23:49 8.93478 103.07090 29842 ft 547 kts 233°
2026-04-22 23:50 8.88903 103.00937 29842 ft 547 kts 233°
2026-04-22 23:50 8.84325 102.94783 29842 ft 546 kts 233°
2026-04-22 23:51 8.79751 102.88637 29844 ft 547 kts 233°
2026-04-22 23:51 8.75161 102.82473 29843 ft 546 kts 233°
2026-04-22 23:52 8.70601 102.76352 29841 ft 544 kts 233°
2026-04-22 23:52 8.66036 102.70227 29838 ft 545 kts 233°
2026-04-22 23:53 8.61485 102.64124 29835 ft 546 kts 233°
2026-04-22 23:53 8.56910 102.57992 29839 ft 546 kts 233°
2026-04-22 23:54 8.52335 102.51862 29845 ft 546 kts 233°
2026-04-22 23:54 8.47741 102.45709 29845 ft 546 kts 233°
2026-04-22 23:55 8.43178 102.39600 29842 ft 544 kts 233°
2026-04-22 23:55 8.38608 102.33485 29841 ft 545 kts 233°
2026-04-22 23:56 8.34046 102.27383 29842 ft 545 kts 233°
2026-04-22 23:56 8.29474 102.21273 29841 ft 546 kts 233°
2026-04-22 23:57 8.24863 102.15110 29840 ft 547 kts 233°
2026-04-22 23:57 8.20284 102.08993 29841 ft 546 kts 233°
2026-04-22 23:58 8.15693 102.02864 29840 ft 545 kts 233°
2026-04-22 23:58 8.11112 101.96751 29841 ft 546 kts 233°
2026-04-22 23:59 8.06547 101.90661 29842 ft 546 kts 233°
2026-04-22 23:59 8.01932 101.84507 29842 ft 548 kts 233°
2026-04-23 00:00 7.95013 101.75286 29842 ft 549 kts 233°
2026-04-23 00:01 7.90425 101.69174 29843 ft 547 kts 232°
2026-04-23 00:01 7.85830 101.63056 29841 ft 546 kts 232°
2026-04-23 00:02 7.81234 101.56938 29839 ft 547 kts 232°
2026-04-23 00:02 7.76631 101.50825 29837 ft 546 kts 232°
2026-04-23 00:03 7.72039 101.44705 29841 ft 545 kts 232°
2026-04-23 00:03 7.67479 101.38641 29845 ft 544 kts 232°
2026-04-23 00:04 7.62864 101.32513 29845 ft 544 kts 232°
2026-04-23 00:04 7.58304 101.26459 29843 ft 544 kts 232°
2026-04-23 00:05 7.53708 101.20358 29846 ft 544 kts 232°
2026-04-23 00:05 7.49134 101.14286 29845 ft 545 kts 232°
2026-04-23 00:06 7.44530 101.08179 29842 ft 545 kts 232°
2026-04-23 00:06 7.39948 101.02103 29843 ft 545 kts 232°
2026-04-23 00:07 7.35369 100.96034 29843 ft 548 kts 232°
2026-04-23 00:07 7.30744 100.89905 29839 ft 548 kts 232°
2026-04-23 00:08 7.26120 100.83781 29832 ft 547 kts 232°
2026-04-23 00:08 7.21510 100.77676 29827 ft 546 kts 232°
2026-04-23 00:09 7.16907 100.71583 29835 ft 546 kts 232°
2026-04-23 00:09 7.12285 100.65468 29841 ft 547 kts 232°
2026-04-23 00:10 7.07656 100.59345 29843 ft 547 kts 232°
2026-04-23 00:10 7.03049 100.53256 29845 ft 548 kts 232°
2026-04-23 00:11 6.98264 100.47262 29842 ft 546 kts 224°
2026-04-23 00:11 6.95367 100.44859 29845 ft 545 kts 213°
2026-04-23 00:11 6.92066 100.42935 29843 ft 542 kts 203°
2026-04-23 00:11 6.88514 100.41672 29843 ft 540 kts 192°
2026-04-23 00:12 6.84802 100.41088 29846 ft 535 kts 182°
2026-04-23 00:12 6.77326 100.41144 29848 ft 531 kts 174°
2026-04-23 00:13 6.69923 100.41582 29850 ft 531 kts 174°
2026-04-23 00:13 6.62522 100.41939 29850 ft 531 kts 175°
2026-04-23 00:14 6.55049 100.42222 29849 ft 532 kts 176°
2026-04-23 00:14 6.47637 100.42286 29846 ft 533 kts 178°
2026-04-23 00:15 6.40383 100.43460 29846 ft 524 kts 157°
2026-04-23 00:15 6.37099 100.45057 29846 ft 519 kts 146°
2026-04-23 00:15 6.34231 100.47239 29845 ft 515 kts 134°
2026-04-23 00:16 6.29306 100.52436 29820 ft 517 kts 139°
2026-04-23 00:16 6.26277 100.54485 29401 ft 527 kts 149°
2026-04-23 00:16 6.22897 100.55930 28776 ft 525 kts 160°
2026-04-23 00:16 6.19332 100.56681 28155 ft 520 kts 172°
2026-04-23 00:17 6.15757 100.56721 27541 ft 515 kts 183°
2026-04-23 00:17 6.12219 100.56046 26919 ft 511 kts 195°
2026-04-23 00:17 6.08939 100.54700 26303 ft 507 kts 207°
2026-04-23 00:17 6.06023 100.52740 25688 ft 502 kts 219°
2026-04-23 00:18 6.03603 100.50269 25078 ft 496 kts 231°
2026-04-23 00:18 6.01733 100.47362 24466 ft 491 kts 242°
2026-04-23 00:18 6.00261 100.44287 23854 ft 485 kts 245°
2026-04-23 00:18 5.98915 100.41204 23250 ft 479 kts 246°
2026-04-23 00:19 5.97651 100.38227 22630 ft 457 kts 246°
2026-04-23 00:19 5.96442 100.35349 22044 ft 437 kts 247°
2026-04-23 00:19 5.95291 100.32600 21474 ft 421 kts 247°
2026-04-23 00:19 5.94178 100.29944 20899 ft 406 kts 248°
2026-04-23 00:20 5.92928 100.27452 20321 ft 391 kts 234°
2026-04-23 00:20 5.91158 100.25442 19741 ft 378 kts 218°
2026-04-23 00:20 5.89010 100.24042 19166 ft 366 kts 202°
2026-04-23 00:20 5.86604 100.23301 18585 ft 355 kts 186°
2026-04-23 00:21 5.84163 100.23278 18005 ft 344 kts 169°
2026-04-23 00:21 5.81916 100.23943 17425 ft 334 kts 151°
2026-04-23 00:21 5.80020 100.25220 16838 ft 324 kts 134°
2026-04-23 00:21 5.78501 100.26868 16246 ft 318 kts 128°
2026-04-23 00:22 5.77101 100.28580 15657 ft 313 kts 127°
2026-04-23 00:22 5.75749 100.30252 15067 ft 309 kts 130°
2026-04-23 00:22 5.74083 100.31606 14478 ft 307 kts 150°
2026-04-23 00:22 5.72091 100.32330 13896 ft 306 kts 169°
2026-04-23 00:23 5.69962 100.32360 13304 ft 305 kts 188°
2026-04-23 00:23 5.67952 100.31690 12713 ft 304 kts 210°
2026-04-23 00:23 5.66325 100.30377 12139 ft 302 kts 224°
2026-04-23 00:23 5.64845 100.28877 11547 ft 299 kts 224°
2026-04-23 00:24 5.63134 100.27763 10962 ft 293 kts 195°
2026-04-23 00:24 5.61130 100.27562 10375 ft 287 kts 174°
2026-04-23 00:24 5.59161 100.27770 9802 ft 285 kts 171°
2026-04-23 00:24 5.57201 100.28051 9212 ft 283 kts 166°
2026-04-23 00:25 5.55464 100.28907 8621 ft 277 kts 135°
2026-04-23 00:25 5.54389 100.30470 8032 ft 272 kts 112°
2026-04-23 00:25 5.53696 100.32217 7438 ft 271 kts 110°
2026-04-23 00:25 5.53001 100.33975 6841 ft 270 kts 111°
2026-04-23 00:26 5.52280 100.35712 6240 ft 269 kts 117°
2026-04-23 00:26 5.51368 100.37323 5649 ft 268 kts 120°
2026-04-23 00:26 5.50405 100.38928 5045 ft 267 kts 121°
2026-04-23 00:26 5.49324 100.40430 4438 ft 265 kts 136°
2026-04-23 00:27 5.47727 100.41320 3839 ft 264 kts 168°
2026-04-23 00:27 5.45918 100.41247 3240 ft 263 kts 198°
2026-04-23 00:27 5.44318 100.40433 2832 ft 254 kts 214°
2026-04-23 00:27 5.42891 100.39399 2456 ft 246 kts 216°
2026-04-23 00:28 5.41590 100.38367 2041 ft 232 kts 219°
2026-04-23 00:28 5.40388 100.37328 1605 ft 219 kts 221°
2026-04-23 00:28 5.39282 100.36343 1251 ft 204 kts 221°
2026-04-23 00:28 5.38302 100.35459 1218 ft 176 kts 221°
2026-04-23 00:29 5.37426 100.34700 1200 ft 155 kts 220°
2026-04-23 00:29 5.36628 100.34003 1175 ft 151 kts 221°
2026-04-23 00:29 5.35875 100.33257 1048 ft 151 kts 225°
2026-04-23 00:29 5.35099 100.32543 983 ft 150 kts 220°
2026-04-23 00:30 5.34331 100.31866 909 ft 144 kts 221°
2026-04-23 00:30 5.33594 100.31200 793 ft 141 kts 221°
2026-04-23 00:30 5.32854 100.30534 613 ft 143 kts 221°
2026-04-23 00:30 5.32117 100.29863 452 ft 142 kts 222°
2026-04-23 00:31 5.31382 100.29197 238 ft 143 kts 222°
2026-04-23 00:31 5.30644 100.28529 41 ft 139 kts 222°
2026-04-23 00:31 5.29981 100.27923 24 ft 105 kts 222°
2026-04-23 00:31 5.29593 100.27574 24 ft 43 kts 222°
2026-04-23 00:32 5.29425 100.27422 23 ft 30 kts 222°
2026-04-23 00:32 5.29269 100.27280 23 ft 29 kts 222°
2026-04-23 00:32 5.29124 100.27149 23 ft 27 kts 222°
2026-04-23 00:32 5.29030 100.27087 23 ft 13 kts 195°
2026-04-23 00:33 5.28923 100.27080 23 ft 17 kts 173°
2026-04-23 00:33 5.28794 100.27098 23 ft 16 kts 187°
2026-04-23 00:33 5.28683 100.27092 23 ft 14 kts 129°
2026-04-23 00:33 5.28667 100.27111 23 ft 0 kts 130°